Вернуться в каталог

STARLINK-5217

АктивенСвязьVLEO
NORAD 54098·PAYLOAD·🇺🇸 United States

Запущен Oct 20, 2022 с Cape Canaveral Space Force Station

Loading…

Ближайшие Пролёты (ближайшие 24 часа)

TLE

СвежийSource: CelesTrak SupGP

Эпоха: Sep 14, 2026, 21:49 UTC

1 54098C 22136AZ  26257.90951389  .00503810  00000+0  25795-1 0  2578
2 54098  53.1605 204.2501 0001388  94.2379  21.7631 15.15847725    12

Отслеживайте STARLINK-5217 в реальном времени с AllMySat

Download on the App Store